Regional Weather Roundup
Issued by NWS

Home | Current Version | Previous Version | Text Only | Print | Product List | Glossary Off
Versions: 1 2 3 4 5 6 7 8 9 10 11 12 13 14 15 16 17 18 19 20 21 22 23 24 25 26 27 28 29 30 31 32 33 34 35 36 37 38 39 40 41 42 43 44 45 46 47 48 49 50

000
ASUS43 KDMX 281803
RWRIA

WEATHER ROUNDUP FOR IOWA
NATIONAL WEATHER SERVICE DES MOINES IA
100 PM CDT THU APR 28 2016

NOTE: "FAIR" INDICATES FEW OR NO CLOUDS BELOW 12,000 FEET WITH NO
SIGNIFICANT WEATHER AND/OR OBSTRUCTIONS TO VISIBILITY.

* - THESE STATIONS ARE NOT NWS STATIONS...THUS NOT UNDER NWS
QUALITY CONTROL.  THEY ALSO DO NOT REPORT WEATHER SUCH
AS PRECIPITATION OR FOG.

IAZ001>003-012>014-020>022-031>034-043>046-281900-
   NORTHWEST IOWA

CITY           SKY/WX    TMP DP  RH WIND       PRES   REMARKS
CARROLL *      CLOUDY    48  46  93 NW17      29.88R
CHEROKEE *     CLOUDY    43  42  99 N8        29.94R
DENISON *      CLOUDY    45  43  93 N12       29.90R
LE MARS *      CLOUDY    43  39  87 N12G17    29.96R
ORANGE CITY *  CLOUDY    39  37  93 N8        29.95R WCI  34
SHELDON *      CLOUDY    41  39  93 N9        29.94R
SIOUX CITY     CLOUDY    46  40  79 N13       29.95R
6HR MIN TEMP:  44; 6HR MAX TEMP:  47; 6HR PCP: TRACE;

SPENCER        LGT RAIN  43  38  82 N13       29.93R
6HR MIN TEMP:  39; 6HR MAX TEMP:  43; 6HR PCP:  0.12;

STORM LAKE *   PTSUNNY   41  41 100 N12       29.92R FOG
$$

IAZ055>058-069>071-079>083-090>094-281900-
   SOUTHWEST IOWA

CITY           SKY/WX    TMP DP  RH WIND       PRES   REMARKS
ATLANTIC *     CLOUDY    52  46  82 NW12      29.90R
AUDUBON *      PTSUNNY   48  45  87 NW10G20   29.90R
CLARINDA *       N/A    N/A N/A N/A MISG        N/A
COUNCIL BLFS *   N/A     48  45  87 NW10G18   29.94R
CRESTON *      CLOUDY    50  46  87 W14       29.91R
HARLAN  *      CLOUDY    48  45  87 NW17      29.95R
LAMONI         CLOUDY    52  46  80 W15       29.90R
6HR MIN TEMP:  45; 6HR MAX TEMP:  56;

RED OAK *      CLOUDY    50  45  81 NW13      29.94R
SHENANDOAH *   CLOUDY    50  46  87 NW10      29.96R
$$

IAZ047>049-059>061-072>074-084-281900-
   CENTRAL IOWA

CITY           SKY/WX    TMP DP  RH WIND       PRES   REMARKS
AMES           CLOUDY    53  47  79 N6        29.86R
6HR MIN TEMP:  47; 6HR MAX TEMP:  54; 6HR PCP:  0.04;

ANKENY *       CLOUDY    55  46  71 VRB5      29.86R
BOONE *        CLOUDY    54  48  82 VRB6      29.86R
CHARITON *     CLOUDY    55  46  71 W14G21    29.87R
DES MOINES     CLOUDY    54  46  74 W13       29.87R
6HR MIN TEMP:  47; 6HR MAX TEMP:  57;

GRINNELL*      CLOUDY    52  46  77 SW6       29.86R
KNOXVILLE *    CLOUDY    54  45  71 W6        29.86R
MARSHALLTOWN   CLOUDY    51  47  86 SE3       29.85R
6HR MIN TEMP:  47; 6HR MAX TEMP:  51; 6HR PCP:  0.01;

NEWTON *       CLOUDY    54  48  82 W12       29.86R
PELLA *        MOSUNNY   55  46  70 NW8       29.88R
$$

IAZ004>006-015-016-023>025-035-036-281900-
   NORTH CENTRAL IOWA

CITY           SKY/WX    TMP DP  RH WIND       PRES   REMARKS
ALGONA *       LGT RAIN  43  41  93 NE12      29.91R
CLARION *      CLOUDY    46  45  93 NE5       29.89R
ESTHERVILLE    LGT RAIN  41  39  93 N14       29.92R
6HR MIN TEMP:  37; 6HR MAX TEMP:  41; 6HR PCP:  0.18;

FORT DODGE *   CLOUDY    48  43  81 NW5       29.89R
MASON CITY     LGT RAIN  43  42  97 NE10      29.91S FOG
6HR MIN TEMP:  40; 6HR MAX TEMP:  43; 6HR PCP:  0.03;

FOREST CITY *  DRIZZLE   41  41 100 NE7       29.91R
WEBSTER CITY * CLOUDY    50  46  87 CALM      29.86R
IOWA FALLS *   DRIZZLE   48  46  94 NE3       29.88R
$$

IAZ007>011-017>019-026>030-037>042-050>054-066-281900-
   NORTHEAST IOWA

CITY           SKY/WX    TMP DP  RH WIND       PRES   REMARKS
CEDAR RAPIDS   RAIN      50  50 100 E8        29.84R VSB 1
6HR MIN TEMP:  47; 6HR MAX TEMP:  50; 6HR PCP:  0.05;

CHARLES CITY * CLOUDY    45  45 100 E9        29.89S
CLINTON *      CLOUDY    50  47  89 E12       29.87S FOG
DECORAH *      CLOUDY    43  43 100 E8G15     29.90R
DUBUQUE        CLOUDY    46  43  89 E12       29.88R
6HR MIN TEMP:  44; 6HR MAX TEMP:  46;

MONTICELLO *   CLOUDY    50  46  87 E12       29.86S
OELWEIN *      CLOUDY    48  48 100 E9G16     29.88R
WATERLOO       CLOUDY    49  46  90 E9        29.86R FOG
6HR MIN TEMP:  44; 6HR MAX TEMP:  49;

$$

IAZ064-065-067-068-078-281900-
   EAST CENTRAL IOWA

CITY           SKY/WX    TMP DP  RH WIND       PRES   REMARKS
DAVENPORT      CLOUDY    51  47  86 E12       29.86F FOG
6HR MIN TEMP:  47; 6HR MAX TEMP:  51;

IOWA CITY      CLOUDY    52  48  86 SW10      29.87R
6HR MIN TEMP:  49; 6HR MAX TEMP:  55; 6HR PCP:  0.02;

MT. PLEASANT * CLOUDY    57  48  72 W12       29.87R
MUSCATINE *    CLOUDY    57  46  67 SW9       29.86R
QUAD CITIES    CLOUDY    53  47  79 E8        29.85S HAZE
6HR MIN TEMP:  50; 6HR MAX TEMP:  53;

$$

IAZ062-063-075>077-085>089-095>099-281900-
   SOUTHEAST IOWA

CITY           SKY/WX    TMP DP  RH WIND       PRES   REMARKS
BURLINGTON     CLOUDY    55  47  74 W14       29.86R
6HR MIN TEMP:  50; 6HR MAX TEMP:  56;

FAIRFIELD *    PTSUNNY   52  50  93 W10       29.87R FOG
FORT MADISON * CLOUDY    54  46  76 W7        29.88S
KEOKUK *       CLOUDY    57  46  67 W15       29.87R
OSKALOOSA *    CLOUDY    54  46  76 W9        29.87S
OTTUMWA        CLOUDY    52  47  83 NW6       29.86S
6HR MIN TEMP:  48; 6HR MAX TEMP:  53; 6HR PCP:  0.01;

WASHINGTON *   CLOUDY    54  48  82 W10       29.87S
$$

ABBREVIATIONS USED IN REMARKS
   TC - TEMPERATURES IN CELSIUS
  WCI - WIND CHILL INDEX
   HX - HEAT INDEX
  VSB - VISIBILITY
$$





USA.gov is the U.S. government's official web portal to all federal, state and local government web resources and services.